User: anonymous   Login
Location: Noordwijk
(52.2400°N, 4.4500°E)
Time: 09:50:51
(UTC+00:00)
Language:

SPROUT - Orbit

View from above orbital plane
View from above orbital plane
View from above satellite
View from above satellite

Ground track
Ground track

The orbit data is extracted from the following two-line orbital elements,

1 39770U 14029E   22333.77260620  .00007634  00000-0  73109-3 0  9998
2 39770  97.9570  92.1341 0007548 258.2551 101.7928 14.93441864462315
Epoch (UTC): 29 November 2022 18:32:33
Eccentricity: 0.0007548
inclination: 97.9570°
perigee height: 582 km
apogee height: 592 km
right ascension of ascending node: 92.1341°
argument of perigee: 258.2551°
revolutions per day: 14.93441864
mean anomaly at epoch: 101.7928°
orbit number at epoch: 46231

The dashed part of the orbit path shows where the satellite is in the earth's shadow,  

DLR